Time,TemperatureF,DewpointF,PressureIn,WindDirection,WindDirectionDegrees,WindSpeedMPH,WindSpeedGustMPH,Humidity,HourlyPrecipIn,Conditions,Clouds,dailyrainin,SoftwareType,DateUTC
2013-02-02 00:01:00,39.6,2.9,30.33,NNE,15,0.0,0.0,21,-99.99,,---,-99.99,VWS V14.01,2013-02-02 08:01:00,
2013-02-02 00:06:00,39.4,2.7,30.33,NNE,24,0.0,0.0,21,-99.99,,---,-99.99,VWS V14.01,2013-02-02 08:06:00,
2013-02-02 00:11:00,39.2,2.6,30.33,NNE,32,0.0,0.0,21,-99.99,,---,-99.99,VWS V14.01,2013-02-02 08:11:00,
2013-02-02 00:16:00,39.2,2.6,30.33,NE,35,0.0,0.0,21,-99.99,,---,-99.99,VWS V14.01,2013-02-02 08:16:00,
2013-02-02 00:21:00,39.4,2.7,30.33,NNE,26,0.0,0.0,21,-99.99,,---,-99.99,VWS V14.01,2013-02-02 08:21:00,
2013-02-02 00:26:00,39.4,2.7,30.33,NNE,22,0.0,0.0,21,-99.99,,---,-99.99,VWS V14.01,2013-02-02 08:26:00,
2013-02-02 00:31:00,39.4,2.7,30.33,NNE,20,0.0,0.0,21,-99.99,,---,-99.99,VWS V14.01,2013-02-02 08:31:00,
2013-02-02 00:36:00,39.4,2.7,30.33,NNE,29,0.0,0.0,21,-99.99,,---,-99.99,VWS V14.01,2013-02-02 08:36:00,
2013-02-02 00:41:00,39.2,2.6,30.33,NE,41,0.0,0.0,21,-99.99,,---,-99.99,VWS V14.01,2013-02-02 08:41:00,
2013-02-02 00:46:00,39.2,2.6,30.33,ENE,61,0.0,0.0,21,-99.99,,---,-99.99,VWS V14.01,2013-02-02 08:46:00,
2013-02-02 00:51:00,39.0,2.4,30.33,NE,55,0.0,0.0,21,-99.99,,---,-99.99,VWS V14.01,2013-02-02 08:51:00,
2013-02-02 00:56:00,39.0,2.4,30.33,ENE,59,0.0,0.0,21,-99.99,,---,-99.99,VWS V14.01,2013-02-02 08:56:00,
2013-02-02 01:01:00,39.2,2.6,30.33,NE,52,0.0,0.0,21,-99.99,,---,-99.99,VWS V14.01,2013-02-02 09:01:00,
2013-02-02 01:06:00,39.4,2.7,30.33,NE,46,0.0,0.0,21,-99.99,,---,-99.99,VWS V14.01,2013-02-02 09:06:00,
2013-02-02 01:11:00,39.6,2.9,30.33,NE,45,0.0,0.0,21,-99.99,,---,-99.99,VWS V14.01,2013-02-02 09:11:00,
2013-02-02 01:16:00,39.6,2.9,30.33,NE,47,0.0,0.0,21,-99.99,,---,-99.99,VWS V14.01,2013-02-02 09:16:00,
2013-02-02 01:21:00,39.6,2.9,30.33,NE,39,0.0,0.0,21,-99.99,,---,-99.99,VWS V14.01,2013-02-02 09:21:00,
2013-02-02 01:26:00,39.6,2.9,30.33,NE,43,0.0,0.0,21,-99.99,,---,-99.99,VWS V14.01,2013-02-02 09:26:00,
2013-02-02 01:31:00,39.7,3.0,30.33,NE,43,0.0,0.0,21,-99.99,,---,-99.99,VWS V14.01,2013-02-02 09:31:00,
2013-02-02 01:36:00,39.7,3.0,30.33,NE,47,0.0,0.0,21,-99.99,,---,-99.99,VWS V14.01,2013-02-02 09:36:00,
2013-02-02 01:41:00,39.9,3.2,30.33,NE,52,0.0,0.0,21,-99.99,,---,-99.99,VWS V14.01,2013-02-02 09:41:00,
2013-02-02 01:46:00,39.9,3.2,30.33,NE,52,0.0,0.0,21,-99.99,,---,-99.99,VWS V14.01,2013-02-02 09:46:00,
2013-02-02 01:51:00,40.1,3.3,30.33,NE,54,0.0,0.0,21,-99.99,,---,-99.99,VWS V14.01,2013-02-02 09:51:00,
2013-02-02 01:56:00,40.1,3.3,30.33,NE,45,0.0,0.0,21,-99.99,,---,-99.99,VWS V14.01,2013-02-02 09:56:00,
2013-02-02 02:01:00,40.3,3.5,30.33,NE,41,0.0,0.0,21,-99.99,,---,-99.99,VWS V14.01,2013-02-02 10:01:00,
2013-02-02 02:06:00,40.3,3.5,30.33,NE,41,0.0,0.0,21,-99.99,,---,-99.99,VWS V14.01,2013-02-02 10:06:00,
2013-02-02 02:11:00,40.5,3.6,30.33,NE,40,0.0,0.0,21,-99.99,,---,-99.99,VWS V14.01,2013-02-02 10:11:00,
2013-02-02 02:16:00,40.6,3.8,30.33,NE,39,0.0,0.0,21,-99.99,,---,-99.99,VWS V14.01,2013-02-02 10:16:00,
2013-02-02 02:21:00,40.6,3.8,30.30,NE,43,0.0,0.0,21,-99.99,,---,-99.99,VWS V14.01,2013-02-02 10:21:00,
2013-02-02 02:26:00,40.6,3.8,30.30,NE,38,0.0,0.0,21,-99.99,,---,-99.99,VWS V14.01,2013-02-02 10:26:00,
2013-02-02 02:31:00,40.8,3.9,30.30,NE,37,0.0,0.0,21,-99.99,,---,-99.99,VWS V14.01,2013-02-02 10:31:00,
2013-02-02 02:36:00,41.0,4.1,30.30,NE,37,0.0,0.0,21,-99.99,,---,-99.99,VWS V14.01,2013-02-02 10:36:00,
2013-02-02 02:41:00,41.4,4.4,30.30,NE,38,0.0,0.0,21,-99.99,,---,-99.99,VWS V14.01,2013-02-02 10:41:00,
2013-02-02 02:46:00,41.4,4.4,30.30,NNE,26,0.0,0.0,21,-99.99,,---,-99.99,VWS V14.01,2013-02-02 10:46:00,
2013-02-02 02:51:00,41.5,4.5,30.30,NNE,20,0.0,0.0,21,-99.99,,---,-99.99,VWS V14.01,2013-02-02 10:51:00,
2013-02-02 02:56:00,41.7,4.7,30.30,NNE,20,0.0,0.0,21,-99.99,,---,-99.99,VWS V14.01,2013-02-02 10:56:00,
2013-02-02 03:01:00,41.7,4.7,30.30,NNE,29,0.0,0.0,21,-99.99,,---,-99.99,VWS V14.01,2013-02-02 11:01:00,
2013-02-02 03:06:00,41.5,4.5,30.30,NNE,31,0.0,0.0,21,-99.99,,---,-99.99,VWS V14.01,2013-02-02 11:06:00,
2013-02-02 03:11:00,41.4,4.4,30.30,NNE,31,0.0,0.0,21,-99.99,,---,-99.99,VWS V14.01,2013-02-02 11:11:00,
2013-02-02 03:16:00,41.2,4.2,30.30,NNE,30,0.0,0.0,21,-99.99,,---,-99.99,VWS V14.01,2013-02-02 11:16:00,
2013-02-02 03:21:00,40.8,3.9,30.30,NE,43,0.0,0.0,21,-99.99,,---,-99.99,VWS V14.01,2013-02-02 11:21:00,
2013-02-02 03:26:00,40.6,3.8,30.30,NE,49,0.0,0.0,21,-99.99,,---,-99.99,VWS V14.01,2013-02-02 11:26:00,
2013-02-02 03:31:00,40.6,3.8,30.30,NE,39,0.0,0.0,21,-99.99,,---,-99.99,VWS V14.01,2013-02-02 11:31:00,
2013-02-02 03:36:00,40.5,3.6,30.30,NE,45,0.0,0.0,21,-99.99,,---,-99.99,VWS V14.01,2013-02-02 11:36:00,
2013-02-02 03:41:00,40.3,3.5,30.30,NE,43,0.0,0.0,21,-99.99,,---,-99.99,VWS V14.01,2013-02-02 11:41:00,
2013-02-02 03:46:00,40.1,3.3,30.30,NE,41,0.0,0.0,21,-99.99,,---,-99.99,VWS V14.01,2013-02-02 11:46:00,
2013-02-02 03:51:00,39.9,3.2,30.30,NE,41,0.0,0.0,21,-99.99,,---,-99.99,VWS V14.01,2013-02-02 11:51:00,
2013-02-02 03:56:00,39.9,3.2,30.30,NNE,32,0.0,0.0,21,-99.99,,---,-99.99,VWS V14.01,2013-02-02 11:56:00,
2013-02-02 04:01:00,39.9,3.2,30.30,NNE,33,0.0,0.0,21,-99.99,,---,-99.99,VWS V14.01,2013-02-02 12:01:00,
2013-02-02 04:06:00,39.7,3.0,30.30,NE,35,0.0,0.0,21,-99.99,,---,-99.99,VWS V14.01,2013-02-02 12:06:00,
2013-02-02 04:11:00,39.7,3.0,30.30,NE,34,0.0,0.0,21,-99.99,,---,-99.99,VWS V14.01,2013-02-02 12:11:00,
2013-02-02 04:16:00,39.7,3.0,30.30,NNE,32,0.0,0.0,21,-99.99,,---,-99.99,VWS V14.01,2013-02-02 12:16:00,
2013-02-02 04:21:00,39.9,3.2,30.30,NE,35,0.0,0.0,21,-99.99,,---,-99.99,VWS V14.01,2013-02-02 12:21:00,
2013-02-02 04:26:00,40.1,3.3,30.30,NNE,32,0.0,0.0,21,-99.99,,---,-99.99,VWS V14.01,2013-02-02 12:26:00,
2013-02-02 04:31:00,40.1,3.3,30.30,NNE,23,0.0,0.0,21,-99.99,,---,-99.99,VWS V14.01,2013-02-02 12:31:00,
2013-02-02 04:36:00,40.3,3.5,30.30,NNE,29,0.0,0.0,21,-99.99,,---,-99.99,VWS V14.01,2013-02-02 12:36:00,
2013-02-02 04:41:00,40.3,3.5,30.30,NNE,23,0.0,0.0,21,-99.99,,---,-99.99,VWS V14.01,2013-02-02 12:41:00,
2013-02-02 04:46:00,40.3,3.5,30.30,NNE,28,0.0,0.0,21,-99.99,,---,-99.99,VWS V14.01,2013-02-02 12:46:00,
2013-02-02 04:51:00,40.5,3.6,30.30,NNE,23,0.0,0.0,21,-99.99,,---,-99.99,VWS V14.01,2013-02-02 12:51:00,
2013-02-02 04:56:00,40.5,3.6,30.30,NNE,25,0.0,0.0,21,-99.99,,---,-99.99,VWS V14.01,2013-02-02 12:56:00,
2013-02-02 05:01:00,40.3,3.5,30.30,NNE,31,0.0,0.0,21,-99.99,,---,-99.99,VWS V14.01,2013-02-02 13:01:00,
2013-02-02 05:06:00,40.3,3.5,30.30,NE,36,0.0,0.0,21,-99.99,,---,-99.99,VWS V14.01,2013-02-02 13:06:00,
2013-02-02 05:11:00,40.1,3.3,30.30,NE,37,0.0,0.0,21,-99.99,,---,-99.99,VWS V14.01,2013-02-02 13:11:00,
2013-02-02 05:16:00,40.1,3.3,30.30,NE,45,0.0,0.0,21,-99.99,,---,-99.99,VWS V14.01,2013-02-02 13:16:00,
2013-02-02 05:21:00,40.1,3.3,30.30,NE,43,0.0,0.0,21,-99.99,,---,-99.99,VWS V14.01,2013-02-02 13:21:00,
2013-02-02 05:26:00,40.1,3.3,30.30,NE,41,0.0,0.0,21,-99.99,,---,-99.99,VWS V14.01,2013-02-02 13:26:00,
2013-02-02 05:31:00,40.1,3.3,30.30,NE,38,0.0,0.0,21,-99.99,,---,-99.99,VWS V14.01,2013-02-02 13:31:00,
2013-02-02 05:36:00,40.1,3.3,30.30,NE,35,0.0,0.0,21,-99.99,,---,-99.99,VWS V14.01,2013-02-02 13:36:00,
2013-02-02 05:41:00,40.1,3.3,30.30,NE,34,0.0,0.0,21,-99.99,,---,-99.99,VWS V14.01,2013-02-02 13:41:00,
2013-02-02 05:46:00,40.1,3.3,30.30,NNE,25,0.0,0.0,21,-99.99,,---,-99.99,VWS V14.01,2013-02-02 13:46:00,
2013-02-02 05:51:00,40.3,3.5,30.30,NNE,21,0.0,0.0,21,-99.99,,---,-99.99,VWS V14.01,2013-02-02 13:51:00,
2013-02-02 05:56:00,40.3,3.5,30.30,NNE,23,0.0,0.0,21,-99.99,,---,-99.99,VWS V14.01,2013-02-02 13:56:00,
2013-02-02 06:01:00,40.3,3.5,30.30,NNE,29,0.0,0.0,21,-99.99,,---,-99.99,VWS V14.01,2013-02-02 14:01:00,
2013-02-02 06:06:00,40.5,3.6,30.30,NNE,21,0.0,0.0,21,-99.99,,---,-99.99,VWS V14.01,2013-02-02 14:06:00,
2013-02-02 06:11:00,40.3,3.5,30.30,NNE,31,0.0,0.0,21,-99.99,,---,-99.99,VWS V14.01,2013-02-02 14:11:00,
2013-02-02 06:16:00,40.3,3.5,30.30,NNE,28,0.0,0.0,21,-99.99,,---,-99.99,VWS V14.01,2013-02-02 14:16:00,
2013-02-02 06:21:00,40.5,3.6,30.33,NNE,31,0.0,0.0,21,-99.99,,---,-99.99,VWS V14.01,2013-02-02 14:21:00,
2013-02-02 06:26:00,40.5,3.6,30.33,NNE,19,0.0,0.0,21,-99.99,,---,-99.99,VWS V14.01,2013-02-02 14:26:00,
2013-02-02 06:31:00,40.5,3.6,30.33,NNE,15,0.0,0.0,21,-99.99,,---,-99.99,VWS V14.01,2013-02-02 14:31:00,
2013-02-02 06:36:00,40.3,3.5,30.33,NNE,29,0.0,0.0,21,-99.99,,---,-99.99,VWS V14.01,2013-02-02 14:36:00,
2013-02-02 06:42:00,40.3,3.5,30.33,NNE,19,0.0,0.0,21,-99.99,,---,-99.99,VWS V14.01,2013-02-02 14:42:00,
2013-02-02 06:47:00,40.3,3.5,30.33,NE,34,0.0,0.0,21,-99.99,,---,-99.99,VWS V14.01,2013-02-02 14:47:00,
2013-02-02 06:52:00,40.3,3.5,30.33,NE,36,0.0,0.0,21,-99.99,,---,-99.99,VWS V14.01,2013-02-02 14:52:00,
2013-02-02 06:57:00,40.3,3.5,30.33,NNE,29,0.0,0.0,21,-99.99,,---,-99.99,VWS V14.01,2013-02-02 14:57:00,
2013-02-02 07:02:00,40.3,3.5,30.33,NNE,24,0.0,0.0,21,-99.99,,---,-99.99,VWS V14.01,2013-02-02 15:02:00,
2013-02-02 07:07:00,40.3,3.5,30.30,NNE,25,0.0,0.0,21,-99.99,,---,-99.99,VWS V14.01,2013-02-02 15:07:00,
2013-02-02 07:12:00,40.5,3.6,30.30,NNE,27,0.0,0.0,21,-99.99,,---,-99.99,VWS V14.01,2013-02-02 15:12:00,
2013-02-02 07:17:00,40.6,3.8,30.30,NNE,25,0.0,0.0,21,-99.99,,---,-99.99,VWS V14.01,2013-02-02 15:17:00,
2013-02-02 07:22:00,40.6,3.8,30.30,NE,37,0.0,0.0,21,-99.99,,---,-99.99,VWS V14.01,2013-02-02 15:22:00,
2013-02-02 07:27:00,40.6,3.8,30.30,NE,45,0.0,0.0,21,-99.99,,---,-99.99,VWS V14.01,2013-02-02 15:27:00,
2013-02-02 07:32:00,40.6,3.8,30.30,ENE,58,0.0,0.0,21,-99.99,,---,-99.99,VWS V14.01,2013-02-02 15:32:00,
2013-02-02 07:37:00,40.6,3.8,30.33,NE,49,0.0,0.0,21,-99.99,,---,-99.99,VWS V14.01,2013-02-02 15:37:00,
2013-02-02 07:42:00,41.0,4.1,30.33,NNE,31,0.0,0.0,21,-99.99,,---,-99.99,VWS V14.01,2013-02-02 15:42:00,
2013-02-02 07:47:00,41.2,4.2,30.33,NE,35,0.0,0.0,21,-99.99,,---,-99.99,VWS V14.01,2013-02-02 15:47:00,
2013-02-02 07:52:00,41.2,4.2,30.33,NE,47,0.0,0.0,21,-99.99,,---,-99.99,VWS V14.01,2013-02-02 15:52:00,
2013-02-02 07:57:00,41.2,4.2,30.33,NNE,29,0.0,0.0,21,-99.99,,---,-99.99,VWS V14.01,2013-02-02 15:57:00,
2013-02-02 08:02:00,41.2,4.2,30.33,NE,34,0.0,0.0,21,-99.99,,---,-99.99,VWS V14.01,2013-02-02 16:02:00,
2013-02-02 08:07:00,41.2,4.2,30.33,NE,34,0.0,0.0,21,-99.99,,---,-99.99,VWS V14.01,2013-02-02 16:07:00,
2013-02-02 08:12:00,41.4,4.4,30.33,NE,37,0.0,0.0,21,-99.99,,---,-99.99,VWS V14.01,2013-02-02 16:12:00,
2013-02-02 08:17:00,41.7,4.7,30.33,NE,38,0.0,0.0,21,-99.99,,---,-99.99,VWS V14.01,2013-02-02 16:17:00,
2013-02-02 08:22:00,42.1,5.0,30.33,NE,43,0.0,0.0,21,-99.99,,---,-99.99,VWS V14.01,2013-02-02 16:22:00,
2013-02-02 08:27:00,42.4,5.3,30.33,NE,39,0.0,0.0,21,-99.99,,---,-99.99,VWS V14.01,2013-02-02 16:27:00,
2013-02-02 08:32:00,42.6,5.4,30.33,NE,42,0.0,0.0,21,-99.99,,---,-99.99,VWS V14.01,2013-02-02 16:32:00,
2013-02-02 08:37:00,43.0,4.7,30.33,NE,44,0.0,0.0,20,-99.99,,---,-99.99,VWS V14.01,2013-02-02 16:37:00,
2013-02-02 08:42:00,43.2,4.8,30.33,NE,52,0.0,0.0,20,-99.99,,---,-99.99,VWS V14.01,2013-02-02 16:42:00,
2013-02-02 08:47:00,43.3,5.0,30.33,NE,48,0.0,0.0,20,-99.99,,---,-99.99,VWS V14.01,2013-02-02 16:47:00,
2013-02-02 08:52:00,43.7,5.3,30.33,NNE,32,0.0,0.0,20,-99.99,,---,-99.99,VWS V14.01,2013-02-02 16:52:00,
2013-02-02 08:57:00,44.1,5.6,30.33,North,11,0.0,0.0,20,-99.99,,---,-99.99,VWS V14.01,2013-02-02 16:57:00,
2013-02-02 09:02:00,44.8,6.2,30.33,NE,35,0.0,0.0,20,-99.99,,---,-99.99,VWS V14.01,2013-02-02 17:02:00,
2013-02-02 09:07:00,45.1,6.5,30.33,NNE,28,0.0,0.0,20,-99.99,,---,-99.99,VWS V14.01,2013-02-02 17:07:00,
2013-02-02 09:12:00,45.3,6.6,30.33,NNE,25,0.0,0.0,20,-99.99,,---,-99.99,VWS V14.01,2013-02-02 17:12:00,
2013-02-02 09:18:00,45.7,6.9,30.33,NNE,18,0.0,0.0,20,-99.99,,---,-99.99,VWS V14.01,2013-02-02 17:18:00,
2013-02-02 09:23:00,45.5,6.8,30.33,NNE,21,0.0,0.0,20,-99.99,,---,-99.99,VWS V14.01,2013-02-02 17:23:00,
2013-02-02 09:28:00,45.3,6.6,30.33,NNE,29,0.0,0.0,20,-99.99,,---,-99.99,VWS V14.01,2013-02-02 17:28:00,
2013-02-02 09:33:00,45.5,6.8,30.33,NE,34,0.0,0.0,20,-99.99,,---,-99.99,VWS V14.01,2013-02-02 17:33:00,
2013-02-02 09:38:00,46.4,6.4,30.33,NE,38,0.0,0.0,19,-99.99,,---,-99.99,VWS V14.01,2013-02-02 17:38:00,
2013-02-02 09:43:00,47.3,7.1,30.33,NE,38,0.0,0.0,19,-99.99,,---,-99.99,VWS V14.01,2013-02-02 17:43:00,
2013-02-02 09:48:00,47.5,7.3,30.33,NNE,20,0.0,0.0,19,-99.99,,---,-99.99,VWS V14.01,2013-02-02 17:48:00,
2013-02-02 09:53:00,47.8,7.6,30.33,NE,36,0.0,0.0,19,-99.99,,---,-99.99,VWS V14.01,2013-02-02 17:53:00,
2013-02-02 09:58:00,48.2,7.9,30.33,NNE,22,0.0,0.0,19,-99.99,,---,-99.99,VWS V14.01,2013-02-02 17:58:00,
2013-02-02 10:03:00,48.0,7.7,30.33,NE,38,0.0,0.0,19,-99.99,,---,-99.99,VWS V14.01,2013-02-02 18:03:00,
2013-02-02 10:08:00,48.6,8.2,30.33,NNE,33,0.0,0.0,19,-99.99,,---,-99.99,VWS V14.01,2013-02-02 18:08:00,
2013-02-02 10:13:00,49.5,8.9,30.33,NE,39,0.0,0.0,19,-99.99,,---,-99.99,VWS V14.01,2013-02-02 18:13:00,
2013-02-02 10:18:00,50.0,9.4,30.33,NNE,25,0.0,0.0,19,-99.99,,---,-99.99,VWS V14.01,2013-02-02 18:18:00,
2013-02-02 10:23:00,49.1,8.6,30.33,NNE,24,0.0,0.0,19,-99.99,,---,-99.99,VWS V14.01,2013-02-02 18:23:00,
2013-02-02 10:28:00,48.7,8.3,30.33,NNE,25,0.0,0.0,19,-99.99,,---,-99.99,VWS V14.01,2013-02-02 18:28:00,
2013-02-02 10:33:00,48.6,8.2,30.33,NE,35,0.0,0.0,19,-99.99,,---,-99.99,VWS V14.01,2013-02-02 18:33:00,
2013-02-02 10:38:00,48.7,8.3,30.33,NNE,31,0.0,0.0,19,-99.99,,---,-99.99,VWS V14.01,2013-02-02 18:38:00,
2013-02-02 10:43:00,49.1,8.6,30.33,NNE,32,0.0,0.0,19,-99.99,,---,-99.99,VWS V14.01,2013-02-02 18:43:00,
2013-02-02 10:48:00,48.9,8.5,30.33,NNE,27,0.0,0.0,19,-99.99,,---,-99.99,VWS V14.01,2013-02-02 18:48:00,
2013-02-02 10:53:00,48.6,8.2,30.33,NNE,30,0.0,0.0,19,-99.99,,---,-99.99,VWS V14.01,2013-02-02 18:53:00,
2013-02-02 10:58:00,48.2,7.9,30.33,NNE,33,0.0,0.0,19,-99.99,,---,-99.99,VWS V14.01,2013-02-02 18:58:00,
2013-02-02 11:03:00,47.8,7.6,30.33,NE,39,0.0,0.0,19,-99.99,,---,-99.99,VWS V14.01,2013-02-02 19:03:00,
2013-02-02 11:08:00,47.7,7.4,30.33,NNE,31,0.0,0.0,19,-99.99,,---,-99.99,VWS V14.01,2013-02-02 19:08:00,
2013-02-02 11:13:00,47.8,7.6,30.33,NNE,30,0.0,0.0,19,-99.99,,---,-99.99,VWS V14.01,2013-02-02 19:13:00,
2013-02-02 11:18:00,47.8,7.6,30.33,NNE,32,0.0,0.0,19,-99.99,,---,-99.99,VWS V14.01,2013-02-02 19:18:00,
2013-02-02 11:23:00,48.0,7.7,30.33,NNE,27,0.0,0.0,19,-99.99,,---,-99.99,VWS V14.01,2013-02-02 19:23:00,
2013-02-02 11:28:00,48.6,8.2,30.33,NE,39,0.0,0.0,19,-99.99,,---,-99.99,VWS V14.01,2013-02-02 19:28:00,
2013-02-02 11:33:00,49.1,8.6,30.30,NNE,31,0.0,0.0,19,-99.99,,---,-99.99,VWS V14.01,2013-02-02 19:33:00,
2013-02-02 11:38:00,49.3,8.8,30.30,NNE,27,0.0,0.0,19,-99.99,,---,-99.99,VWS V14.01,2013-02-02 19:38:00,
2013-02-02 11:43:00,48.9,8.5,30.30,NNE,17,0.0,0.0,19,-99.99,,---,-99.99,VWS V14.01,2013-02-02 19:43:00,
2013-02-02 11:48:00,49.1,8.6,30.30,NE,36,0.0,0.0,19,-99.99,,---,-99.99,VWS V14.01,2013-02-02 19:48:00,
2013-02-02 11:53:00,49.5,8.9,30.30,NNE,25,0.0,0.0,19,-99.99,,---,-99.99,VWS V14.01,2013-02-02 19:53:00,
2013-02-02 11:58:00,49.6,9.1,30.30,NNE,24,0.0,0.0,19,-99.99,,---,-99.99,VWS V14.01,2013-02-02 19:58:00,
2013-02-02 12:03:00,49.5,8.9,30.30,North,0,0.0,0.0,19,-99.99,,---,-99.99,VWS V14.01,2013-02-02 20:03:00,
2013-02-02 12:08:00,48.9,8.5,30.30,North,357,0.0,0.0,19,-99.99,,---,-99.99,VWS V14.01,2013-02-02 20:08:00,
2013-02-02 12:13:00,48.6,8.2,30.30,North,353,0.0,0.0,19,-99.99,,---,-99.99,VWS V14.01,2013-02-02 20:13:00,
2013-02-02 12:18:00,48.4,8.0,30.30,North,353,0.0,0.0,19,-99.99,,---,-99.99,VWS V14.01,2013-02-02 20:18:00,
2013-02-02 12:23:00,48.4,8.0,30.30,NNE,19,0.0,0.0,19,-99.99,,---,-99.99,VWS V14.01,2013-02-02 20:23:00,
2013-02-02 12:28:00,48.7,8.3,30.30,ENE,66,0.0,0.0,19,-99.99,,---,-99.99,VWS V14.01,2013-02-02 20:28:00,
2013-02-02 12:33:00,48.7,8.3,30.30,East,91,0.0,0.0,19,-99.99,,---,-99.99,VWS V14.01,2013-02-02 20:33:00,
2013-02-02 12:38:00,48.9,8.5,30.30,NE,45,0.0,0.0,19,-99.99,,---,-99.99,VWS V14.01,2013-02-02 20:38:00,
2013-02-02 12:43:00,49.1,8.6,30.30,NNE,17,0.0,0.0,19,-99.99,,---,-99.99,VWS V14.01,2013-02-02 20:43:00,
2013-02-02 12:48:00,49.3,8.8,30.30,NNE,21,0.0,0.0,19,-99.99,,---,-99.99,VWS V14.01,2013-02-02 20:48:00,
2013-02-02 12:53:00,49.3,8.8,30.30,NE,36,0.0,0.0,19,-99.99,,---,-99.99,VWS V14.01,2013-02-02 20:53:00,
2013-02-02 12:58:00,49.1,8.6,30.30,NE,34,0.0,0.0,19,-99.99,,---,-99.99,VWS V14.01,2013-02-02 20:58:00,
2013-02-02 13:03:00,48.6,8.2,30.27,NNW,344,0.0,0.0,19,-99.99,,---,-99.99,VWS V14.01,2013-02-02 21:03:00,
2013-02-02 13:08:00,47.7,7.4,30.27,NW,308,0.0,0.0,19,-99.99,,---,-99.99,VWS V14.01,2013-02-02 21:08:00,
2013-02-02 13:13:00,47.3,7.1,30.27,NNW,330,0.0,0.0,19,-99.99,,---,-99.99,VWS V14.01,2013-02-02 21:13:00,
2013-02-02 13:18:00,47.7,7.4,30.27,NNW,346,0.0,0.0,19,-99.99,,---,-99.99,VWS V14.01,2013-02-02 21:18:00,
2013-02-02 13:23:00,47.8,7.6,30.27,North,0,0.0,0.0,19,-99.99,,---,-99.99,VWS V14.01,2013-02-02 21:23:00,
2013-02-02 13:28:00,47.8,7.6,30.27,North,357,0.0,0.0,19,-99.99,,---,-99.99,VWS V14.01,2013-02-02 21:28:00,
2013-02-02 13:33:00,47.5,7.3,30.27,North,353,0.0,0.0,19,-99.99,,---,-99.99,VWS V14.01,2013-02-02 21:33:00,
2013-02-02 13:38:00,47.5,7.3,30.27,North,0,0.0,0.0,19,-99.99,,---,-99.99,VWS V14.01,2013-02-02 21:38:00,
2013-02-02 13:43:00,47.1,7.0,30.27,North,353,0.0,0.0,19,-99.99,,---,-99.99,VWS V14.01,2013-02-02 21:43:00,
2013-02-02 13:48:00,46.9,6.8,30.27,NNW,343,0.0,0.0,19,-99.99,,---,-99.99,VWS V14.01,2013-02-02 21:48:00,
2013-02-02 13:53:00,46.9,6.8,30.27,NNW,337,0.0,0.0,19,-99.99,,---,-99.99,VWS V14.01,2013-02-02 21:53:00,
2013-02-02 13:58:00,46.9,6.8,30.27,NNW,346,0.0,0.0,19,-99.99,,---,-99.99,VWS V14.01,2013-02-02 21:58:00,
2013-02-02 14:03:00,47.3,7.1,30.27,NNW,346,0.0,0.0,19,-99.99,,---,-99.99,VWS V14.01,2013-02-02 22:03:00,
2013-02-02 14:08:00,47.3,7.1,30.27,NE,47,0.0,0.0,19,-99.99,,---,-99.99,VWS V14.01,2013-02-02 22:08:00,
2013-02-02 14:13:00,47.5,7.3,30.27,East,81,0.0,0.0,19,-99.99,,---,-99.99,VWS V14.01,2013-02-02 22:13:00,
2013-02-02 14:18:00,47.5,7.3,30.27,NE,37,0.0,0.0,19,-99.99,,---,-99.99,VWS V14.01,2013-02-02 22:18:00,
2013-02-02 14:23:00,47.5,7.3,30.27,NE,47,0.0,0.0,19,-99.99,,---,-99.99,VWS V14.01,2013-02-02 22:23:00,
2013-02-02 14:28:00,47.5,7.3,30.27,NNE,28,0.0,0.0,19,-99.99,,---,-99.99,VWS V14.01,2013-02-02 22:28:00,
2013-02-02 14:33:00,47.5,7.3,30.27,NE,36,0.0,0.0,19,-99.99,,---,-99.99,VWS V14.01,2013-02-02 22:33:00,
2013-02-02 14:38:00,47.5,7.3,30.27,ENE,61,0.0,0.0,19,-99.99,,---,-99.99,VWS V14.01,2013-02-02 22:38:00,
2013-02-02 14:43:00,47.8,7.6,30.27,ENE,60,0.0,0.0,19,-99.99,,---,-99.99,VWS V14.01,2013-02-02 22:43:00,
2013-02-02 14:48:00,48.0,7.7,30.27,ENE,68,0.0,0.0,19,-99.99,,---,-99.99,VWS V14.01,2013-02-02 22:48:00,
2013-02-02 14:53:00,48.0,7.7,30.27,East,87,0.0,0.0,19,-99.99,,---,-99.99,VWS V14.01,2013-02-02 22:53:00,
2013-02-02 14:58:00,48.0,7.7,30.27,West,259,0.0,0.0,19,-99.99,,---,-99.99,VWS V14.01,2013-02-02 22:58:00,
2013-02-02 15:03:00,47.3,7.1,30.27,WNW,294,0.0,0.0,19,-99.99,,---,-99.99,VWS V14.01,2013-02-02 23:03:00,
2013-02-02 15:08:00,47.3,7.1,30.27,NW,312,0.0,0.0,19,-99.99,,---,-99.99,VWS V14.01,2013-02-02 23:08:00,
2013-02-02 15:13:00,47.3,7.1,30.27,NE,40,0.0,0.0,19,-99.99,,---,-99.99,VWS V14.01,2013-02-02 23:13:00,
2013-02-02 15:18:00,44.8,6.2,30.27,NE,34,0.0,0.0,20,-99.99,,---,-99.99,VWS V14.01,2013-02-02 23:18:00,
2013-02-02 15:23:00,44.4,5.9,30.27,NNE,20,0.0,0.0,20,-99.99,,---,-99.99,VWS V14.01,2013-02-02 23:23:00,
2013-02-02 15:28:00,44.2,5.7,30.27,NNE,19,0.0,0.0,20,-99.99,,---,-99.99,VWS V14.01,2013-02-02 23:28:00,
2013-02-02 15:33:00,44.2,5.7,30.27,NNE,30,0.0,0.0,20,-99.99,,---,-99.99,VWS V14.01,2013-02-02 23:33:00,
2013-02-02 15:38:00,44.2,5.7,30.27,NNE,31,0.0,0.0,20,-99.99,,---,-99.99,VWS V14.01,2013-02-02 23:38:00,
2013-02-02 15:43:00,44.2,5.7,30.27,NNE,31,0.0,0.0,20,-99.99,,---,-99.99,VWS V14.01,2013-02-02 23:43:00,
2013-02-02 15:48:00,45.0,6.3,30.27,NE,43,0.0,0.0,20,-99.99,,---,-99.99,VWS V14.01,2013-02-02 23:48:00,
2013-02-02 15:53:00,45.0,6.3,30.27,NE,56,0.0,0.0,20,-99.99,,---,-99.99,VWS V14.01,2013-02-02 23:53:00,
2013-02-02 15:58:00,44.6,6.0,30.27,ENE,72,0.0,0.0,20,-99.99,,---,-99.99,VWS V14.01,2013-02-02 23:58:00,
2013-02-02 16:03:00,44.2,5.7,30.27,ENE,71,0.0,0.0,20,-99.99,,---,-99.99,VWS V14.01,2013-02-03 00:03:00,
2013-02-02 16:08:00,44.2,5.7,30.27,NE,51,0.0,0.0,20,-99.99,,---,-99.99,VWS V14.01,2013-02-03 00:08:00,
2013-02-02 16:13:00,43.7,5.3,30.27,East,87,0.0,0.0,20,-99.99,,---,-99.99,VWS V14.01,2013-02-03 00:13:00,
2013-02-02 16:18:00,43.7,5.3,30.27,ENE,57,0.0,0.0,20,-99.99,,---,-99.99,VWS V14.01,2013-02-03 00:18:00,
2013-02-02 16:23:00,43.7,5.3,30.27,ESE,122,0.0,0.0,20,-99.99,,---,-99.99,VWS V14.01,2013-02-03 00:23:00,
2013-02-02 16:28:00,43.7,5.3,30.27,East,86,0.0,0.0,20,-99.99,,---,-99.99,VWS V14.01,2013-02-03 00:28:00,
2013-02-02 16:33:00,42.8,4.5,30.27,East,100,0.0,0.0,20,-99.99,,---,-99.99,VWS V14.01,2013-02-03 00:33:00,
2013-02-02 16:38:00,42.8,4.5,30.27,ESE,114,0.0,0.0,20,-99.99,,---,-99.99,VWS V14.01,2013-02-03 00:38:00,
2013-02-02 16:43:00,42.8,4.5,30.27,ESE,102,0.0,0.0,20,-99.99,,---,-99.99,VWS V14.01,2013-02-03 00:43:00,
2013-02-02 16:48:00,42.8,4.5,30.27,ENE,68,0.0,0.0,20,-99.99,,---,-99.99,VWS V14.01,2013-02-03 00:48:00,
2013-02-02 16:53:00,42.8,4.5,30.27,NE,40,0.0,0.0,20,-99.99,,---,-99.99,VWS V14.01,2013-02-03 00:53:00,
2013-02-02 16:58:00,42.1,5.0,30.27,NNE,20,0.0,0.0,21,-99.99,,---,-99.99,VWS V14.01,2013-02-03 00:58:00,
2013-02-02 17:03:00,42.3,5.1,30.27,NE,43,0.0,0.0,21,-99.99,,---,-99.99,VWS V14.01,2013-02-03 01:03:00,
2013-02-02 17:08:00,42.1,5.0,30.27,NE,51,0.0,0.0,21,-99.99,,---,-99.99,VWS V14.01,2013-02-03 01:08:00,
2013-02-02 17:13:00,42.1,5.0,30.27,NE,51,0.0,0.0,21,-99.99,,---,-99.99,VWS V14.01,2013-02-03 01:13:00,
2013-02-02 17:18:00,41.7,4.7,30.27,NE,51,0.0,0.0,21,-99.99,,---,-99.99,VWS V14.01,2013-02-03 01:18:00,
2013-02-02 17:23:00,41.7,4.7,30.27,East,85,0.0,0.0,21,-99.99,,---,-99.99,VWS V14.01,2013-02-03 01:23:00,
2013-02-02 17:28:00,41.7,4.7,30.27,East,95,0.0,0.0,21,-99.99,,---,-99.99,VWS V14.01,2013-02-03 01:28:00,
2013-02-02 17:33:00,41.7,4.7,30.27,East,86,0.0,0.0,21,-99.99,,---,-99.99,VWS V14.01,2013-02-03 01:33:00,
2013-02-02 17:38:00,41.7,4.7,30.27,East,88,0.0,0.0,21,-99.99,,---,-99.99,VWS V14.01,2013-02-03 01:38:00,
2013-02-02 17:43:00,40.8,3.9,30.27,SSE,150,0.0,0.0,21,-99.99,,---,-99.99,VWS V14.01,2013-02-03 01:43:00,
2013-02-02 17:48:00,40.6,3.8,30.27,SE,138,0.0,0.0,21,-99.99,,---,-99.99,VWS V14.01,2013-02-03 01:48:00,
2013-02-02 17:53:00,40.5,3.6,30.27,ENE,63,0.0,0.0,21,-99.99,,---,-99.99,VWS V14.01,2013-02-03 01:53:00,
2013-02-02 17:58:00,40.5,3.6,30.27,ENE,61,0.0,0.0,21,-99.99,,---,-99.99,VWS V14.01,2013-02-03 01:58:00,
2013-02-02 18:03:00,40.5,3.6,30.27,ENE,68,0.0,0.0,21,-99.99,,---,-99.99,VWS V14.01,2013-02-03 02:03:00,
2013-02-02 18:08:00,39.9,3.2,30.27,ENE,68,0.0,0.0,21,-99.99,,---,-99.99,VWS V14.01,2013-02-03 02:08:00,
2013-02-02 18:13:00,39.9,3.2,30.27,NNE,30,0.0,0.0,21,-99.99,,---,-99.99,VWS V14.01,2013-02-03 02:13:00,
2013-02-02 18:18:00,39.9,3.2,30.27,ESE,102,0.0,0.0,21,-99.99,,---,-99.99,VWS V14.01,2013-02-03 02:18:00,
2013-02-02 18:23:00,39.4,2.7,30.30,ESE,118,0.0,0.0,21,-99.99,,---,-99.99,VWS V14.01,2013-02-03 02:23:00,
2013-02-02 18:28:00,39.4,2.7,30.30,NE,37,0.0,0.0,21,-99.99,,---,-99.99,VWS V14.01,2013-02-03 02:28:00,
2013-02-02 18:33:00,39.0,2.4,30.30,ENE,68,0.0,0.0,21,-99.99,,---,-99.99,VWS V14.01,2013-02-03 02:33:00,
2013-02-02 18:38:00,39.0,2.4,30.30,NNE,33,0.0,0.0,21,-99.99,,---,-99.99,VWS V14.01,2013-02-03 02:38:00,
2013-02-02 18:43:00,39.0,2.4,30.30,NNE,21,0.0,0.0,21,-99.99,,---,-99.99,VWS V14.01,2013-02-03 02:43:00,
2013-02-02 18:48:00,39.0,2.4,30.30,North,357,0.0,0.0,21,-99.99,,---,-99.99,VWS V14.01,2013-02-03 02:48:00,
2013-02-02 18:53:00,38.5,2.0,30.30,West,267,0.0,0.0,21,-99.99,,---,-99.99,VWS V14.01,2013-02-03 02:53:00,
2013-02-02 18:58:00,38.5,2.0,30.30,NNW,348,0.0,0.0,21,-99.99,,---,-99.99,VWS V14.01,2013-02-03 02:58:00,
2013-02-02 19:03:00,38.5,2.0,30.30,NNW,348,0.0,0.0,21,-99.99,,---,-99.99,VWS V14.01,2013-02-03 03:03:00,
2013-02-02 19:08:00,37.9,1.5,30.30,North,353,0.0,0.0,21,-99.99,,---,-99.99,VWS V14.01,2013-02-03 03:08:00,
2013-02-02 19:14:00,37.9,1.5,30.30,North,353,0.0,0.0,21,-99.99,,---,-99.99,VWS V14.01,2013-02-03 03:14:00,
2013-02-02 19:19:00,37.8,1.4,30.30,NNW,342,0.0,0.0,21,-99.99,,---,-99.99,VWS V14.01,2013-02-03 03:19:00,
2013-02-02 19:24:00,37.8,1.4,30.30,North,5,0.0,0.0,21,-99.99,,---,-99.99,VWS V14.01,2013-02-03 03:24:00,
2013-02-02 19:29:00,37.8,1.4,30.30,NE,36,0.0,0.0,21,-99.99,,---,-99.99,VWS V14.01,2013-02-03 03:29:00,
2013-02-02 19:34:00,37.8,1.4,30.30,West,276,0.0,0.0,21,-99.99,,---,-99.99,VWS V14.01,2013-02-03 03:34:00,
2013-02-02 19:39:00,36.9,-1.5,30.30,WNW,297,0.0,0.0,19,-99.99,,---,-99.99,VWS V14.01,2013-02-03 03:39:00,
2013-02-02 19:44:00,36.5,-1.8,30.30,NNW,337,0.0,0.0,19,-99.99,,---,-99.99,VWS V14.01,2013-02-03 03:44:00,
2013-02-02 19:49:00,36.0,-2.3,30.30,WNW,288,8.7,10.1,19,-99.99,,---,-99.99,VWS V14.01,2013-02-03 03:49:00,
2013-02-02 19:54:00,36.0,-2.3,30.30,NW,314,12.8,12.8,19,-99.99,,---,-99.99,VWS V14.01,2013-02-03 03:54:00,
2013-02-02 19:59:00,36.0,-2.3,30.30,West,280,17.9,17.9,19,-99.99,,---,-99.99,VWS V14.01,2013-02-03 03:59:00,
2013-02-02 20:04:00,34.5,-0.4,30.30,West,276,12.3,12.3,22,-99.99,,---,-99.99,VWS V14.01,2013-02-03 04:04:00,
2013-02-02 20:09:00,34.5,-0.4,30.30,West,268,12.8,12.8,22,-99.99,,---,-99.99,VWS V14.01,2013-02-03 04:09:00,
2013-02-02 20:14:00,34.2,-0.7,30.30,NW,311,10.5,10.5,22,-99.99,,---,-99.99,VWS V14.01,2013-02-03 04:14:00,
2013-02-02 20:19:00,34.2,-0.7,30.30,WNW,283,13.2,17.9,22,-99.99,,---,-99.99,VWS V14.01,2013-02-03 04:19:00,
2013-02-02 20:24:00,34.0,-0.9,30.30,NW,314,10.1,13.2,22,-99.99,,---,-99.99,VWS V14.01,2013-02-03 04:24:00,
2013-02-02 20:29:00,34.0,1.9,30.30,WNW,283,12.8,12.8,25,-99.99,,---,-99.99,VWS V14.01,2013-02-03 04:29:00,
2013-02-02 20:34:00,34.0,1.9,30.27,West,278,13.2,13.2,25,-99.99,,---,-99.99,VWS V14.01,2013-02-03 04:34:00,
2013-02-02 20:39:00,34.0,1.9,30.27,WNW,290,10.1,10.1,25,-99.99,,---,-99.99,VWS V14.01,2013-02-03 04:39:00,
2013-02-02 20:44:00,34.0,1.9,30.27,WNW,291,12.8,12.8,25,-99.99,,---,-99.99,VWS V14.01,2013-02-03 04:44:00,
2013-02-02 20:49:00,34.0,1.9,30.27,WNW,290,13.2,13.2,25,-99.99,,---,-99.99,VWS V14.01,2013-02-03 04:49:00,
2013-02-02 20:54:00,34.7,7.2,30.27,WNW,302,12.8,12.8,31,-99.99,,---,-99.99,VWS V14.01,2013-02-03 04:54:00,
2013-02-02 20:59:00,34.9,8.0,30.27,WNW,302,13.2,13.2,32,-99.99,,---,-99.99,VWS V14.01,2013-02-03 04:59:00,
2013-02-02 21:00:00,34.9,8.0,30.27,WNW,302,13.2,13.2,32,-99.99,,---,-99.99,VWS V14.01,2013-02-03 05:00:00,
2013-02-02 21:01:00,34.9,8.0,30.27,WNW,302,13.2,13.2,32,-99.99,,---,-99.99,VWS V14.01,2013-02-03 05:01:00,
2013-02-02 21:06:00,34.9,8.0,30.27,WNW,285,14.1,14.1,32,-99.99,,---,-99.99,VWS V14.01,2013-02-03 05:06:00,
2013-02-02 21:11:00,34.9,8.0,30.27,WNW,291,13.2,13.2,32,-99.99,,---,-99.99,VWS V14.01,2013-02-03 05:11:00,
2013-02-02 21:16:00,34.9,8.0,30.27,NW,307,10.1,12.3,32,-99.99,,---,-99.99,VWS V14.01,2013-02-03 05:16:00,
2013-02-02 21:21:00,34.9,8.0,30.27,WNW,295,8.7,8.7,32,-99.99,,---,-99.99,VWS V14.01,2013-02-03 05:21:00,
2013-02-02 21:26:00,34.9,8.0,30.27,WNW,297,5.4,5.4,32,-99.99,,---,-99.99,VWS V14.01,2013-02-03 05:26:00,
2013-02-02 21:31:00,35.8,9.5,30.27,WNW,288,8.3,8.3,33,-99.99,,---,-99.99,VWS V14.01,2013-02-03 05:31:00,
2013-02-02 21:36:00,35.8,9.5,30.27,WNW,293,6.3,6.3,33,-99.99,,---,-99.99,VWS V14.01,2013-02-03 05:36:00,
2013-02-02 21:41:00,35.8,9.5,30.27,WNW,296,0.0,6.3,33,-99.99,,---,-99.99,VWS V14.01,2013-02-03 05:41:00,
2013-02-02 21:46:00,35.8,9.5,30.27,WNW,292,0.0,0.0,33,-99.99,,---,-99.99,VWS V14.01,2013-02-03 05:46:00,
2013-02-02 21:51:00,35.8,9.5,30.27,WNW,293,8.7,8.7,33,-99.99,,---,-99.99,VWS V14.01,2013-02-03 05:51:00,
2013-02-02 21:56:00,35.8,9.5,30.27,NW,305,7.6,7.6,33,-99.99,,---,-99.99,VWS V14.01,2013-02-03 05:56:00,
2013-02-02 22:01:00,35.8,9.5,30.27,NW,307,8.3,8.3,33,-99.99,,---,-99.99,VWS V14.01,2013-02-03 06:01:00,
2013-02-02 22:06:00,36.0,9.7,30.27,NW,307,8.3,8.3,33,-99.99,,---,-99.99,VWS V14.01,2013-02-03 06:06:00,
2013-02-02 22:11:00,36.0,9.7,30.27,WNW,300,0.0,0.0,33,-99.99,,---,-99.99,VWS V14.01,2013-02-03 06:11:00,
2013-02-02 22:16:00,36.0,9.7,30.27,NW,308,0.0,0.0,33,-99.99,,---,-99.99,VWS V14.01,2013-02-03 06:16:00,
2013-02-02 22:21:00,36.0,9.7,30.27,NW,308,0.0,0.0,33,-99.99,,---,-99.99,VWS V14.01,2013-02-03 06:21:00,
2013-02-02 22:26:00,36.0,9.7,30.27,North,353,0.0,0.0,33,-99.99,,---,-99.99,VWS V14.01,2013-02-03 06:26:00,
2013-02-02 22:31:00,36.1,9.8,30.27,NNW,329,0.0,0.0,33,-99.99,,---,-99.99,VWS V14.01,2013-02-03 06:31:00,
2013-02-02 22:36:00,36.1,9.8,30.27,North,0,0.0,0.0,33,-99.99,,---,-99.99,VWS V14.01,2013-02-03 06:36:00,
2013-02-02 22:41:00,36.1,9.8,30.27,NE,35,6.3,6.3,33,-99.99,,---,-99.99,VWS V14.01,2013-02-03 06:41:00,
2013-02-02 22:46:00,38.1,11.6,30.27,North,10,5.8,5.8,33,-99.99,,---,-99.99,VWS V14.01,2013-02-03 06:46:00,
2013-02-02 22:51:00,38.1,11.6,30.27,NE,39,4.9,4.9,33,-99.99,,---,-99.99,VWS V14.01,2013-02-03 06:51:00,
2013-02-02 22:56:00,38.1,11.6,30.27,NE,39,4.9,4.9,33,-99.99,,---,-99.99,VWS V14.01,2013-02-03 06:56:00,
2013-02-02 23:01:00,38.7,12.1,30.27,NE,34,5.4,5.4,33,-99.99,,---,-99.99,VWS V14.01,2013-02-03 07:01:00,
2013-02-02 23:06:00,38.7,12.1,30.27,NE,34,5.4,5.4,33,-99.99,,---,-99.99,VWS V14.01,2013-02-03 07:06:00,
2013-02-02 23:11:00,38.8,11.5,30.27,ENE,61,8.3,8.3,32,-99.99,,---,-99.99,VWS V14.01,2013-02-03 07:11:00,
2013-02-02 23:16:00,38.8,11.5,30.27,NE,40,5.8,6.3,32,-99.99,,---,-99.99,VWS V14.01,2013-02-03 07:16:00,
2013-02-02 23:21:00,38.7,11.4,30.27,NE,40,5.8,5.8,32,-99.99,,---,-99.99,VWS V14.01,2013-02-03 07:21:00,
2013-02-02 23:26:00,38.7,11.4,30.27,ENE,57,5.8,5.8,32,-99.99,,---,-99.99,VWS V14.01,2013-02-03 07:26:00,
2013-02-02 23:31:00,38.5,10.5,30.27,ENE,57,5.8,5.8,31,-99.99,,---,-99.99,VWS V14.01,2013-02-03 07:31:00,
2013-02-02 23:36:00,38.3,10.3,30.27,ENE,61,6.3,6.3,31,-99.99,,---,-99.99,VWS V14.01,2013-02-03 07:36:00,
2013-02-02 23:41:00,38.3,10.3,30.27,ENE,61,6.3,6.3,31,-99.99,,---,-99.99,VWS V14.01,2013-02-03 07:41:00,
2013-02-02 23:46:00,38.3,10.3,30.27,NE,54,6.3,6.3,31,-99.99,,---,-99.99,VWS V14.01,2013-02-03 07:46:00,
2013-02-02 23:51:00,38.3,10.3,30.24,ENE,58,8.7,8.7,31,-99.99,,---,-99.99,VWS V14.01,2013-02-03 07:51:00,
2013-02-02 23:56:00,38.1,10.2,30.24,ENE,58,8.7,8.7,31,-99.99,,---,-99.99,VWS V14.01,2013-02-03 07:56:00,